TimeMST,TemperatureF,Dew PointF,Humidity,Sea Level PressureIn,VisibilityMPH,Wind Direction,Wind SpeedMPH,Gust SpeedMPH,PrecipitationIn,Events,Conditions,WindDirDegrees,DateUTC
12:53 AM,50.0,28.9,44,29.92,10.0,West,11.5,-,N/A,,Clear,260,2013-12-02 07:53:00
1:53 AM,52.0,26.1,37,29.88,10.0,West,15.0,24.2,N/A,,Clear,260,2013-12-02 08:53:00
2:53 AM,51.1,26.1,38,29.86,10.0,West,12.7,-,N/A,,Clear,260,2013-12-02 09:53:00
3:53 AM,51.1,25.0,36,29.83,10.0,West,8.1,18.4,N/A,,Clear,270,2013-12-02 10:53:00
4:53 AM,46.9,28.0,48,29.82,10.0,WNW,8.1,-,N/A,,Clear,290,2013-12-02 11:53:00
5:53 AM,46.0,28.9,51,29.82,10.0,West,9.2,-,N/A,,Partly Cloudy,280,2013-12-02 12:53:00
6:53 AM,48.0,27.0,44,29.81,10.0,West,11.5,-,N/A,,Overcast,260,2013-12-02 13:53:00
7:53 AM,46.0,27.0,47,29.79,10.0,West,6.9,-,N/A,,Mostly Cloudy,280,2013-12-02 14:53:00
8:53 AM,48.0,27.0,44,29.77,10.0,WSW,10.4,-,N/A,,Mostly Cloudy,250,2013-12-02 15:53:00
9:53 AM,52.0,26.1,37,29.75,10.0,West,21.9,34.5,N/A,,Clear,280,2013-12-02 16:53:00
10:53 AM,54.0,26.1,34,29.73,10.0,West,18.4,31.1,0.00,,Scattered Clouds,260,2013-12-02 17:53:00
11:53 AM,53.1,25.0,34,29.71,10.0,West,17.3,29.9,N/A,,Mostly Cloudy,270,2013-12-02 18:53:00
12:53 PM,52.0,27.0,38,29.70,8.0,West,20.7,39.1,0.00,Rain,Light Rain,260,2013-12-02 19:53:00
1:53 PM,50.0,28.0,43,29.67,10.0,WSW,20.7,39.1,0.00,Rain,Light Rain,250,2013-12-02 20:53:00
2:53 PM,48.9,30.9,50,29.64,10.0,WSW,27.6,40.3,0.00,Rain,Light Rain,240,2013-12-02 21:53:00
3:53 PM,51.1,27.0,39,29.58,10.0,WSW,17.3,27.6,0.00,,Overcast,250,2013-12-02 22:53:00
4:53 PM,52.0,27.0,38,29.56,10.0,WSW,27.6,35.7,0.00,Rain,Light Rain,240,2013-12-02 23:53:00
5:53 PM,50.0,28.9,44,29.54,10.0,WSW,25.3,33.4,0.00,,Mostly Cloudy,240,2013-12-03 00:53:00
6:53 PM,43.0,36.0,76,29.58,10.0,West,23.0,36.8,0.00,,Mostly Cloudy,280,2013-12-03 01:53:00
7:15 PM,39.0,36.0,89,29.65,5.0,West,24.2,42.6,0.02,Rain,Rain,270,2013-12-03 02:15:00
7:24 PM,37.0,35.1,93,29.66,5.0,West,23.0,36.8,0.03,Rain,Light Rain,270,2013-12-03 02:24:00
7:31 PM,36.0,34.0,93,29.66,8.0,West,23.0,34.5,0.03,Snow,Light Snow,260,2013-12-03 02:31:00
7:53 PM,33.1,32.0,96,29.67,2.5,West,24.2,35.7,0.04,Snow,Light Snow,260,2013-12-03 02:53:00
7:58 PM,33.1,32.0,96,29.68,1.5,West,24.2,38.0,0.00,Snow,Light Snow,270,2013-12-03 02:58:00
8:10 PM,32.0,32.0,100,29.68,1.2,West,20.7,32.2,0.01,Snow,Light Snow,270,2013-12-03 03:10:00
8:17 PM,32.0,30.9,96,29.69,1.2,West,21.9,32.2,0.01,Snow,Light Snow,260,2013-12-03 03:17:00
8:23 PM,32.0,30.9,96,29.69,0.8,West,20.7,32.2,0.01,Snow,Light Snow,260,2013-12-03 03:23:00
8:36 PM,32.0,30.9,96,29.69,1.2,West,20.7,31.1,0.02,Snow,Light Snow,260,2013-12-03 03:36:00
8:39 PM,32.0,30.9,96,29.70,2.0,West,17.3,31.1,0.02,Snow,Light Snow,260,2013-12-03 03:39:00
8:53 PM,30.9,30.0,96,29.72,7.0,WSW,23.0,34.5,0.02,Snow,Light Snow,240,2013-12-03 03:53:00
9:05 PM,30.9,28.9,92,29.72,9.0,WSW,20.7,31.1,0.00,Snow,Light Snow,250,2013-12-03 04:05:00
9:53 PM,30.0,26.1,85,29.74,10.0,SW,15.0,27.6,0.00,,Overcast,230,2013-12-03 04:53:00
10:53 PM,28.9,24.1,82,29.77,10.0,SSW,17.3,-,N/A,,Overcast,200,2013-12-03 05:53:00
11:53 PM,27.0,21.9,81,29.78,10.0,SW,17.3,-,N/A,,Overcast,230,2013-12-03 06:53:00